Location: Heisler
(52.6701°N, 112.2239°W)
Time: 15:09:42
(UTC+00:00)

Envisat - Pass Details

Date: 06 December 2021
Orbit: 764 x 766 km, 98.2° (Epoch: 26 January)

Event Time Altitude Azimuth Distance (km) Brightness Sun altitude
Rises 00:34:08 0° 200° (SSW) 3,223 6.9 -11.1°
Reaches altitude 10° 00:36:49 10° 214° (SSW) 2,302 6.4 -11.5°
Maximum altitude 00:40:57 25° 269° (W) 1,518 5.4 -12.1°
Drops below altitude 10° 00:45:08 10° 324° (NW) 2,316 5.7 -12.7°
Sets 00:47:51 0° 337° (NNW) 3,248 6.3 -13.1°
